Stations météo

réclame
Mon MeteoGroup
Berus, Allemagne (10704): Température de l'air & dewpoint: 16.07.2018 08:00:00 - 22.07.2018 08:00:00 (CEST)Berus, Allemagne (10704): Température de l'air 5cm & Température de l'air -5cm: 16.07.2018 08:00:00 - 22.07.2018 08:00:00 (CEST)Berus, Allemagne (10704): Température de l'air -20cm & Température de l'air -100cm: 16.07.2018 08:00:00 - 22.07.2018 08:00:00 (CEST)Berus, Allemagne (10704): Vitesse du vent & gusts: 16.07.2018 08:00:00 - 22.07.2018 08:00:00 (CEST)Berus, Allemagne (10704): Direction du vent: 16.07.2018 08:00:00 - 22.07.2018 08:00:00 (CEST)Berus, Allemagne (10704): reduced air pressure: 16.07.2018 08:00:00 - 22.07.2018 08:00:00 (CEST)Berus, Allemagne (10704): visibility: 16.07.2018 08:00:00 - 22.07.2018 08:00:00 (CEST)Berus, Allemagne (10704): Ensoleillement: 16.07.2018 08:00:00 - 22.07.2018 08:00:00 (CEST)Berus, Allemagne (10704): Quantités de précipitations: 16.07.2018 08:00:00 - 22.07.2018 08:00:00 (CEST)
Date & Time tt [°C] td [°C] tt 5cm [°C] tt -5cm [°C] tt -20cm [°C] tt -100cm [°C] ff [km/h] ff [knt] fx [km/h] fx [knt] dd ppp [hPa] vv [km] sd [min] rr [mm]
22.07.2018 08:00:00 17,3 12,8 17,7 22,4 24,8 21,4 14 8 22 12 NW 1014,6 16 0 0,0
22.07.2018 07:00:00 16,8 13,4 16,9 22,5 25,0 21,4 11 6 21 11 WNW 1014,2 12 0 0,0
22.07.2018 06:00:00 16,8 13,7 16,6 22,7 25,3 21,4 11 6 22 12 WNW 1013,9 10 0 0,0
22.07.2018 05:00:00 17,3 14,0 16,9 23,0 25,5 21,4 11 6 18 10 WNW 1013,7 10 0 0,0
22.07.2018 04:00:00 17,5 14,0 17,3 23,3 25,8 21,4 13 7 21 12 WNW 1013,6 10 0 0,0
22.07.2018 03:00:00 17,6 14,2 16,9 23,7 26,1 21,4 13 7 20 11 WNW 1013,5 10 0 0,0
22.07.2018 02:00:00 18,0 14,1 17,3 24,3 26,4 21,4 14 8 22 12 WNW 1013,5 12 0 0,0
22.07.2018 01:00:00 18,4 13,8 17,5 25,0 26,7 21,4 14 8 22 12 WNW 1013,6 14 0 0,0
22.07.2018 00:00:00 19,0 13,6 18,2 25,8 27,0 21,4 11 6 20 11 W 1013,2 19 0 0,0
21.07.2018 23:00:00 19,6 13,3 18,9 26,8 27,2 21,4 11 6 18 10 W 1013,0 25 0 0,0
21.07.2018 22:00:00 20,7 13,3 20,5 27,8 27,3 21,4 6 3 16 9 N 1012,7 33 0 0,0
21.07.2018 21:00:00 21,7 13,0 21,7 28,8 27,4 21,3 12 6 24 13 W 1012,2 32 0 0,0
21.07.2018 20:00:00 22,5 12,5 23,5 29,8 27,3 21,3 11 6 22 12 WSW 1011,9 37 19 0,0
21.07.2018 19:00:00 23,5 13,0 25,6 30,5 27,1 21,3 12 7 32 17 W 1011,7 39 49 0,0
21.07.2018 18:00:00 22,8 13,2 24,6 30,9 26,9 21,3 16 9 29 16 W 1011,7 35 45 0,0
21.07.2018 17:00:00 23,3 13,3 26,1 31,1 26,6 21,3 17 9 29 15 WSW 1011,6 37 33 0,0
21.07.2018 16:00:00 23,4 14,5 28,3 30,5 26,2 21,3 15 8 27 15 SW 1011,8 37 27 0,0
21.07.2018 15:00:00 23,2 14,6 29,0 29,9 25,8 21,3 19 10 29 16 SW 1012,0 17 42 0,0
21.07.2018 14:00:00 20,8 14,6 24,3 29,0 25,5 21,3 17 9 30 16 WSW 1012,7 22 7 0,0
21.07.2018 13:00:00 21,7 15,0 26,8 27,9 25,2 21,3 19 10 32 17 WSW 1012,2 18 33 0,0
21.07.2018 12:00:00 21,1 15,7 25,4 25,9 25,1 21,3 17 9 28 15 WSW 1012,1 22 21 0,0
21.07.2018 11:00:00 19,2 16,4 21,1 24,4 25,2 21,3 12 7 17 9 SSW 1012,2 15 0 0,0
21.07.2018 10:00:00 18,0 16,2 18,9 24,0 25,3 21,3 7 4 19 10 WSW 1011,9 13 0 0,1
21.07.2018 09:00:00 18,6 15,0 19,5 24,0 25,4 21,3 13 7 27 14 W 1011,3 23 16 0,0
21.07.2018 08:00:00 18,0 15,1 18,7 23,3 25,6 21,3 14 7 23 13 WSW 1011,2 23 0 0,0
21.07.2018 07:00:00 17,5 14,8 17,4 23,3 25,9 21,3 16 8 22 12 WSW 1011,0 25 0 0,0
21.07.2018 06:00:00 17,4 14,1 16,9 23,7 26,2 21,3 16 9 23 13 SW 1011,0 25 0 0,0
21.07.2018 05:00:00 18,0 13,7 17,5 24,1 26,5 21,3 16 8 21 11 SSW 1011,0 21 0 0,0
21.07.2018 04:00:00 18,1 13,2 17,7 24,6 26,8 21,3 11 6 16 8 SSW 1011,2 17 0 0,0
21.07.2018 03:00:00 19,5 13,1 18,9 25,2 27,0 21,3 11 6 19 10 W 1010,9 17 0 0,0
21.07.2018 02:00:00 20,2 13,2 19,6 25,7 27,4 21,3 14 7 19 10 WNW 1010,7 20 0 0,0
21.07.2018 01:00:00 20,8 12,9 20,0 26,4 27,7 21,3 11 6 19 10 WNW 1010,7 24 0 0,0
21.07.2018 00:00:00 21,1 13,1 20,3 27,2 28,0 21,3 11 6 18 10 WNW 1010,9 24 0 0,0
20.07.2018 23:00:00 21,9 13,3 21,0 28,2 28,2 21,3 10 6 20 11 WNW 1010,8 26 0 0,0
20.07.2018 22:00:00 22,6 13,1 21,9 29,5 28,4 21,2 14 7 21 11 W 1010,8 30 0 0,0
20.07.2018 21:00:00 23,8 12,9 23,6 30,9 28,4 21,2 8 4 15 8 WNW 1010,7 29 16 0,0
20.07.2018 20:00:00 25,6 12,8 27,6 32,1 28,2 21,2 7 4 22 12 WNW 1010,3 32 57 0,0
20.07.2018 19:00:00 26,8 11,8 30,5 32,4 28,1 21,2 10 5 21 12 WSW 1010,2 35 43 0,0
20.07.2018 18:00:00 27,3 11,5 30,7 32,3 27,8 21,2 13 7 20 11 SW 1010,7 34 24 0,0
20.07.2018 17:00:00 25,7 12,1 28,5 32,4 27,6 21,2 6 4 18 10 WSW 1011,4 34 34 0,0
20.07.2018 16:00:00 25,7 12,7 32,5 31,4 27,4 21,2 12 7 38 20 W 1011,7 23 19 0,0
20.07.2018 15:00:00 23,3 11,5 24,6 33,1 26,9 21,2 29 16 46 25 WSW 1012,7 27 0 0,0
20.07.2018 14:00:00 27,3 9,9 32,7 33,6 26,2 21,2 9 5 18 10 W 1012,0 26 54 0,0
20.07.2018 13:00:00 27,7 10,5 34,9 31,5 25,6 21,2 8 4 16 9 SSE 1012,3 28 60 0,0
20.07.2018 12:00:00 26,2 10,3 32,0 29,3 25,2 21,2 8 5 16 9 SE 1012,9 25 60 0,0
20.07.2018 11:00:00 24,4 10,7 29,7 27,0 24,9 21,2 6 3 12 7 SSE 1013,3 31 60 0,0
20.07.2018 10:00:00 22,5 10,5 27,6 24,8 24,9 21,2 5 3 16 9 ENE 1013,6 21 60 0,0
20.07.2018 09:00:00 19,6 10,5 23,5 23,3 25,0 21,2 14 7 17 9 NE 1014,0 31 60 0,0
20.07.2018 08:00:00 18,7 10,0 20,6 22,3 25,3 21,2 11 6 13 7 NNE 1014,0 15 46 0,0
20.07.2018 07:00:00 17,5 10,5 16,0 22,3 25,6 21,2 8 5 12 7 NNE 1014,4 12 0 0,0
20.07.2018 06:00:00 17,4 10,9 15,2 22,7 26,0 21,2 9 5 11 6 NNE 1014,4 14 0 0,0
20.07.2018 05:00:00 17,7 11,1 14,8 23,2 26,3 21,2 7 4 10 5 NNE 1014,6 15 0 0,0
20.07.2018 04:00:00 18,4 10,9 14,5 23,8 26,7 21,2 6 4 13 7 NNE 1014,9 25 0 0,0
20.07.2018 03:00:00 18,2 12,3 16,0 24,5 27,1 21,2 7 4 9 5 NNE 1015,0 18 0 0,0
20.07.2018 02:00:00 20,9 11,4 16,5 25,2 27,4 21,2 5 3 9 5 E 1015,1 23 0 0,0
20.07.2018 01:00:00 19,9 11,7 15,9 26,0 27,8 21,2 6 3 8 4 NE 1015,4 26 0 0,0
20.07.2018 00:00:00 21,4 10,2 16,3 27,0 28,2 21,2 0 0 5 3 N 1015,3 34 0 0,0
19.07.2018 23:00:00 23,1 9,9 17,9 28,1 28,5 21,1 4 2 6 3 SE 1015,1 32 0 0,0
19.07.2018 22:00:00 22,4 9,6 18,0 29,6 28,7 21,1 0 0 5 3 N 1015,1 32 0 0,0
19.07.2018 21:00:00 23,8 9,7 21,0 31,3 28,8 21,1 3 2 7 4 ENE 1014,7 36 25 0,0
19.07.2018 20:00:00 25,6 8,6 26,3 32,8 28,7 21,1 6 3 11 6 NNW 1014,4 43 54 0,0
19.07.2018 19:00:00 26,9 8,4 31,9 34,0 28,5 21,1 5 3 12 6 NNE 1014,4 38 50 0,0
19.07.2018 18:00:00 26,9 9,1 33,0 34,4 28,1 21,1 5 3 13 7 N 1014,7 43 49 0,0
19.07.2018 17:00:00 27,3 9,7 34,9 35,1 27,6 21,1 8 4 19 10 N 1015,1 29 60 0,0
19.07.2018 16:00:00 27,8 9,1 37,4 34,1 27,0 21,1 6 3 16 9 ENE 1015,4 27 41 0,0
19.07.2018 15:00:00 27,7 9,6 35,2 33,7 26,4 21,1 6 3 18 10 E 1015,7 29 58 0,0
19.07.2018 14:00:00 25,5 8,8 33,1 32,1 25,8 21,1 3 2 16 9 NNW 1016,4 38 33 0,0
19.07.2018 13:00:00 25,2 9,3 32,8 31,0 25,2 21,1 7 4 21 11 ESE 1016,6 35 60 0,0
19.07.2018 12:00:00 25,0 10,2 33,7 28,7 24,7 21,1 9 5 14 8 NNE 1016,9 39 60 0,0
19.07.2018 11:00:00 23,0 10,6 29,9 26,3 24,5 21,1 6 3 16 9 NE 1017,3 25 60 0,0
19.07.2018 10:00:00 21,0 10,9 27,0 24,1 24,5 21,1 11 6 18 10 NE 1017,7 28 60 0,0
19.07.2018 09:00:00 19,6 10,7 22,8 22,5 24,6 21,1 14 8 23 12 NE 1017,7 23 60 0,0
19.07.2018 08:00:00 18,4 10,0 19,4 21,6 24,9 21,1 16 9 21 11 NE 1017,7 18 60 0,0
19.07.2018 07:00:00 17,1 9,6 15,7 21,7 25,2 21,1 17 9 21 11 NNE 1017,7 27 37 0,0
19.07.2018 06:00:00 16,6 9,5 14,7 22,1 25,6 21,1 16 9 19 10 NNE 1017,6 28 0 0,0
19.07.2018 05:00:00 16,8 9,3 14,9 22,6 25,9 21,1 15 8 19 10 NNE 1017,7 33 0 0,0
19.07.2018 04:00:00 16,8 9,7 15,0 23,2 26,3 21,1 14 8 17 9 NNE 1017,9 26 0 0,0
19.07.2018 03:00:00 18,0 9,7 16,1 23,8 26,6 21,0 14 8 20 11 NNE 1017,9 26 0 0,0
19.07.2018 02:00:00 18,5 9,7 16,7 24,5 27,0 21,0 16 9 24 13 NE 1017,8 37 0 0,0
19.07.2018 01:00:00 18,7 9,6 17,0 25,3 27,4 21,0 14 8 22 12 NNE 1017,7 38 0 0,0
19.07.2018 00:00:00 19,9 9,2 18,3 26,2 27,8 21,0 15 8 22 12 NNE 1017,1 37 0 0,0
18.07.2018 23:00:00 21,2 8,6 19,1 27,3 28,1 21,0 14 8 21 11 NNE 1016,5 44 0 0,0
18.07.2018 22:00:00 21,6 9,2 19,1 28,8 28,3 21,0 12 6 19 10 N 1016,3 49 2 0,0
18.07.2018 21:00:00 22,1 9,8 20,4 30,5 28,4 21,0 11 6 16 9 N 1016,1 43 60 0,0
18.07.2018 20:00:00 24,6 8,6 27,5 31,8 28,4 21,0 7 4 16 9 N 1015,7 48 60 0,0
18.07.2018 19:00:00 25,4 8,9 30,5 32,6 28,2 21,0 8 4 23 13 N 1015,6 35 46 0,0
18.07.2018 18:00:00 24,7 9,4 27,6 33,4 27,9 21,0 10 5 19 11 NNE 1016,1 46 29 0,0
18.07.2018 17:00:00 26,3 10,2 33,2 33,9 27,4 21,0 9 5 22 12 NE 1016,1 56 27 0,0
18.07.2018 16:00:00 25,9 9,2 33,9 33,6 26,9 21,0 9 5 23 12 ENE 1016,4 20 47 0,0
18.07.2018 15:00:00 24,4 9,2 30,2 32,8 26,4 21,0 7 4 16 9 N 1017,0 34 35 0,0
18.07.2018 14:00:00 26,6 11,2 35,8 31,7 25,9 20,9 4 2 14 8 NNE 1016,8 37 32 0,0
18.07.2018 13:00:00 23,9 10,0 28,3 30,7 25,4 20,9 4 2 18 10 NNE 1017,4 50 28 0,0
18.07.2018 12:00:00 23,9 10,2 31,5 29,2 25,0 20,9 13 7 20 11 NE 1017,6 29 59 0,0
18.07.2018 11:00:00 22,6 10,2 28,9 27,1 24,7 20,9 10 5 24 13 NE 1018,1 42 58 0,0
18.07.2018 10:00:00 21,4 12,1 26,7 24,9 24,7 20,9 10 5 16 9 NE 1018,3 20 60 0,0
18.07.2018 09:00:00 19,1 12,0 22,6 23,1 24,8 20,9 10 5 18 10 NE 1018,4 21 60 0,0
18.07.2018 08:00:00 17,5 12,4 18,8 22,2 25,1 20,9 11 6 15 8 NE 1018,3 23 55 0,0
18.07.2018 07:00:00 16,8 12,0 16,3 22,2 25,4 20,9 10 5 14 8 NNE 1018,4 28 16 0,0
18.07.2018 06:00:00 16,9 11,7 15,7 22,5 25,7 20,9 11 6 18 10 NNE 1018,1 29 0 0,0
18.07.2018 05:00:00 17,2 11,1 15,9 23,0 26,0 20,9 13 7 16 9 NNE 1018,1 35 0 0,0
18.07.2018 04:00:00 17,9 11,0 16,3 23,6 26,4 20,9 10 5 20 11 N 1018,0 38 0 0,0
18.07.2018 03:00:00 18,1 11,6 16,2 24,2 26,7 20,9 12 6 22 12 N 1017,7 35 0 0,0
18.07.2018 02:00:00 19,0 12,0 17,6 24,9 27,1 20,9 16 8 22 12 NNW 1017,5 39 0 0,0
18.07.2018 01:00:00 19,6 12,3 18,0 25,7 27,4 20,9 16 8 23 12 NNW 1017,4 38 0 0,0
18.07.2018 00:00:00 20,5 12,4 19,3 26,6 27,7 20,9 15 8 22 12 NNW 1017,0 38 0 0,0
17.07.2018 23:00:00 21,6 12,5 20,4 27,5 28,0 20,9 13 7 26 14 NW 1016,7 39 0 0,0
17.07.2018 22:00:00 22,3 12,6 21,0 28,9 28,2 20,9 13 7 21 11 NW 1016,1 37 2 0,0
17.07.2018 21:00:00 23,6 12,4 22,7 30,4 28,3 20,9 7 4 23 12 NW 1015,3 41 60 0,0
17.07.2018 20:00:00 25,0 11,8 26,2 31,7 28,2 20,8 14 7 25 14 WNW 1014,7 41 60 0,0
17.07.2018 19:00:00 26,6 11,7 29,8 32,4 28,0 20,8 13 7 30 16 W 1014,3 30 50 0,0
17.07.2018 18:00:00 26,8 12,4 30,6 32,9 27,8 20,8 9 5 29 16 WNW 1014,3 44 35 0,0
17.07.2018 17:00:00 26,1 11,6 28,4 33,1 27,4 20,8 11 6 27 15 W 1014,5 32 30 0,0
17.07.2018 16:00:00 28,0 11,8 34,1 32,6 27,1 20,8 13 7 26 14 WNW 1014,1 32 45 0,0
17.07.2018 15:00:00 25,5 14,0 30,7 31,8 26,6 20,8 5 3 38 21 SSE 1014,5 33 26 0,5
17.07.2018 14:00:00 23,9 13,6 22,9 33,4 26,0 20,8 16 9 35 19 W 1015,0 28 45 0,0
17.07.2018 13:00:00 26,9 10,8 32,7 31,5 25,4 20,8 12 7 26 14 W 1014,8 34 60 0,0
17.07.2018 12:00:00 25,4 12,0 31,4 29,4 25,0 20,8 10 5 22 12 W 1014,9 33 60 0,0
17.07.2018 11:00:00 24,3 11,4 29,6 27,2 24,8 20,8 4 2 17 9 WNW 1014,6 22 57 0,0
17.07.2018 10:00:00 22,1 13,5 27,0 25,0 24,7 20,8 5 3 9 5 W 1014,6 19 60 0,0
17.07.2018 09:00:00 19,7 14,0 22,5 23,2 24,9 20,8 2 1 9 5 W 1014,7 18 60 0,0
17.07.2018 08:00:00 18,6 13,5 19,0 22,2 25,1 20,8 4 2 12 6 W 1014,5 22 57 0,0
17.07.2018 07:00:00 17,2 13,6 16,1 22,1 25,4 20,8 8 4 11 6 W 1014,4 19 25 0,0
17.07.2018 06:00:00 17,5 13,5 14,9 22,5 25,8 20,8 8 4 10 6 S 1014,0 23 0 0,0
17.07.2018 05:00:00 17,0 13,6 14,6 23,0 26,1 20,8 6 3 9 5 NE 1013,8 18 0 0,0
17.07.2018 04:00:00 18,7 14,7 14,9 23,6 26,5 20,7 0 0 0 0 N 1013,4 8 0 0,0
17.07.2018 03:00:00 18,4 12,9 14,5 24,2 26,9 20,7 0 0 7 4 N 1013,6 25 0 0,0
17.07.2018 02:00:00 19,6 13,3 15,2 24,9 27,3 20,7 4 2 6 3 W 1013,4 32 0 0,0
17.07.2018 01:00:00 20,1 12,9 16,1 25,7 27,6 20,7 3 1 8 4 SSE 1013,4 30 0 0,0
17.07.2018 00:00:00 21,4 12,0 16,2 26,7 28,0 20,7 4 2 7 4 SSE 1012,9 25 0 0,0
16.07.2018 23:00:00 21,7 10,7 17,4 27,9 28,4 20,7 4 2 6 4 NE 1012,7 32 0 0,0
16.07.2018 22:00:00 22,6 10,5 18,5 29,3 28,6 20,7 5 3 8 4 S 1012,0 36 2 0,0
16.07.2018 21:00:00 24,4 9,6 22,5 30,8 28,7 20,7 3 2 25 13 NNW 1011,1 42 22 0,0
16.07.2018 20:00:00 24,6 11,6 24,8 32,4 28,7 20,7 5 3 14 8 NE 1010,9 33 41 0,0
16.07.2018 19:00:00 25,1 11,7 27,3 33,4 28,5 20,7 11 6 24 13 NE 1010,7 36 22 0,0
16.07.2018 18:00:00 26,0 12,1 28,5 34,5 28,2 20,6 6 3 17 9 E 1010,4 32 26 0,0
16.07.2018 17:00:00 26,7 11,9 30,1 35,0 27,7 20,6 4 2 16 8 E 1010,4 29 34 0,0
16.07.2018 16:00:00 25,3 12,1 27,5 35,6 27,0 20,6 10 5 17 9 SSE 1011,1 29 35 0,0
16.07.2018 15:00:00 26,9 12,2 33,6 34,8 26,3 20,6 8 4 15 8 S 1011,2 23 60 0,0
16.07.2018 14:00:00 26,3 11,9 33,7 33,1 25,6 20,6 6 3 13 7 E 1012,0 21 60 0,0
16.07.2018 13:00:00 24,2 11,9 31,2 31,3 25,0 20,6 7 4 18 10 ENE 1012,6 21 60 0,0
16.07.2018 12:00:00 23,9 12,3 31,6 28,9 24,5 20,6 6 3 13 7 NE 1012,9 14 55 0,0
16.07.2018 11:00:00 22,5 13,0 28,8 26,5 24,3 20,6 5 3 11 6 SSE 1013,3 7 60 0,0
16.07.2018 10:00:00 19,9 13,7 23,6 24,2 24,2 20,6 5 3 9 5 SSW 1013,8 29 60 0,0
16.07.2018 09:00:00 17,6 13,6 20,3 22,4 24,4 20,6 4 2 9 5 SE 1014,2 13 53 0,0
16.07.2018 08:00:00 16,6 13,3 16,5 21,3 24,7 20,6 7 4 9 5 S 1014,5 19 58 0,0

tt = Température de l'air
td = dewpoint
tt 5cm = Température de l'air 5cm
tt -5cm = Température de l'air -5cm
tt -20cm = Température de l'air -20cm
tt -100cm = Température de l'air -100cm
ff = Vitesse du vent
fx = gusts
dd = Direction du vent
ppp = reduced air pressure
vv = visibility
sd = Ensoleillement
rr = Quantités de précipitations

stations d'obs. à proximité